Cartosat-1

operational
NORAD ID: 28649 Int'l Des: 2005-017 Owner: ISRO Country: IN
LEOCIRCULARRETROGRADESSO

关于 Cartosat-1

正在加载描述...

实时位置

正在加载3D地球...

即将过境

高度历史

Altitude vs Time

uPlot chart will show altitude changes over time

两行轨道根数

1 28649U 05017A 25297.80174505 .00001945 00000-0 20634-3 0 9994
2 28649 97.5552 326.3764 0002549 104.2189 255.9312 14.90155510108759
Epoch: Oct 24, 2025 • Age: 14 hours

当前状态

高度 608.1 km
速度 7.55 km/s
星下点 -25.44°S, 152.04°E
发射日期 May 5, 2005
运行时间 20.4 years
类型 other

技术详情

分类 Payload
质量 1560.00 kg
干质量 1560.00 kg
总质量 1560.00 kg
长度 2.80 m
直径 2.00 m
跨度 12.00 m
形状 Box + 2 Pan
制造商 ISRO
平台类型 IRS
阶段状态 In Orbit
所有者/国家 ISRO/IN

大型星座

Loading constellations...